TimeCST,TemperatureF,Dew PointF,Humidity,Sea Level PressureIn,VisibilityMPH,Wind Direction,Wind SpeedMPH,Gust SpeedMPH,PrecipitationIn,Events,Conditions,WindDirDegrees,DateUTC
12:53 AM,30.9,16.0,54,30.28,10.0,Calm,Calm,-,N/A,,Clear,0,2012-12-22 06:53:00
1:53 AM,30.0,16.0,56,30.28,10.0,Calm,Calm,-,N/A,,Clear,0,2012-12-22 07:53:00
2:53 AM,30.0,17.1,59,30.27,10.0,Calm,Calm,-,N/A,,Clear,0,2012-12-22 08:53:00
3:53 AM,28.9,17.1,61,30.27,10.0,ESE,3.5,-,N/A,,Clear,110,2012-12-22 09:53:00
4:53 AM,27.0,19.9,75,30.26,10.0,East,3.5,-,N/A,,Clear,80,2012-12-22 10:53:00
5:53 AM,26.1,23.0,88,30.27,10.0,East,3.5,-,N/A,,Clear,80,2012-12-22 11:53:00
6:53 AM,26.1,21.9,84,30.26,10.0,East,4.6,-,N/A,,Clear,90,2012-12-22 12:53:00
7:53 AM,27.0,21.9,81,30.26,10.0,East,3.5,-,N/A,,Clear,100,2012-12-22 13:53:00
8:53 AM,33.1,24.1,70,30.25,10.0,SE,4.6,-,N/A,,Clear,130,2012-12-22 14:53:00
9:53 AM,39.9,24.1,53,30.25,10.0,SSE,3.5,-,N/A,,Clear,160,2012-12-22 15:53:00
10:53 AM,46.0,23.0,40,30.22,10.0,Variable,3.5,-,N/A,,Clear,0,2012-12-22 16:53:00
11:53 AM,52.0,23.0,32,30.18,10.0,South,4.6,-,N/A,,Clear,170,2012-12-22 17:53:00
12:53 PM,57.9,19.9,23,30.13,10.0,South,9.2,-,N/A,,Clear,170,2012-12-22 18:53:00
1:53 PM,62.1,15.1,16,30.09,10.0,SW,5.8,-,N/A,,Clear,230,2012-12-22 19:53:00
2:53 PM,63.0,8.1,11,30.06,10.0,SSW,9.2,-,N/A,,Clear,210,2012-12-22 20:53:00
3:53 PM,62.1,8.1,12,30.04,10.0,SSW,10.4,16.1,N/A,,Clear,210,2012-12-22 21:53:00
4:53 PM,57.0,7.0,14,30.05,10.0,SSW,6.9,-,N/A,,Clear,210,2012-12-22 22:53:00
5:53 PM,53.1,12.9,20,30.06,10.0,SSW,6.9,-,N/A,,Clear,200,2012-12-22 23:53:00
6:53 PM,50.0,16.0,26,30.06,10.0,South,4.6,-,N/A,,Clear,190,2012-12-23 00:53:00
7:53 PM,46.9,18.0,32,30.05,10.0,South,5.8,-,N/A,,Clear,170,2012-12-23 01:53:00
8:53 PM,48.0,19.9,33,30.04,10.0,South,4.6,-,N/A,,Clear,180,2012-12-23 02:53:00
9:53 PM,46.0,19.9,35,30.04,10.0,South,4.6,-,N/A,,Clear,180,2012-12-23 03:53:00
10:53 PM,48.9,19.0,31,30.02,10.0,SSW,6.9,-,N/A,,Clear,200,2012-12-23 04:53:00
11:53 PM,46.0,19.0,34,30.01,10.0,South,4.6,-,N/A,,Clear,180,2012-12-23 05:53:00